Location: Briis
(48.6240°N, 2.1211°E)
Time: 03:28:28
(UTC+00:00)

Cosmos 2061 Rocket - Pass Details

Date: 25 September 2020
Orbit: 966 x 1012 km, 82.9° (Epoch: 22 October)

Event Time Altitude Azimuth Distance (km) Brightness Sun altitude
Rises 04:24:57 0° 349° (N) 3,757 7.1 -13.6°
Reaches altitude 10° 04:27:30 10° 348° (NNW) 2,804 6.4 -13.2°
Maximum altitude 04:33:56 74° 265° (W) 1,053 4.0 -12.1°
Drops below altitude 10° 04:40:19 10° 181° (S) 2,779 6.3 -11.1°
Sets 04:42:50 0° 180° (S) 3,721 6.9 -10.7°
